Вернуться в каталог

FENGYUN 1C DEB

АктивенSSO
NORAD 31560·DEBRIS·🇨🇳 China

Запущен May 10, 1999 с Taiyuan Satellite Launch Center

Loading…

Ближайшие Пролёты (ближайшие 24 часа)

TLE

СвежийSource: Space-Track

Эпоха: Sep 13, 2026, 07:52 UTC

1 31560U 99025BZB 26256.32790646  .00000033  00000-0  32592-4 0  9999
2 31560  98.5570 289.4853 0119809 231.6711 127.3649 14.21289970  5188

Отслеживайте FENGYUN 1C DEB в реальном времени с AllMySat

Download on the App Store